Regional Weather Roundup
Issued by NWS

Home | Current Version | Previous Version | Text Only | Print | Product List | Glossary Off
Versions: 1 2 3 4 5 6 7 8 9 10 11 12 13 14 15 16 17 18 19 20 21 22 23 24 25 26 27 28 29 30 31 32 33 34 35 36 37 38 39 40 41 42 43 44 45 46 47 48 49 50

000
ASUS45 KBOU 011010
RWRCO

WEATHER ROUNDUP FOR COLORADO
NATIONAL WEATHER SERVICE DENVER/BOULDER CO
400 AM MDT SAT AUG 01 2015

NOTE: "FAIR" INDICATES FEW OR NO CLOUDS BELOW 12000 FEET WITH NO
SIGNIFICANT WEATHER AND/OR OBSTRUCTIONS TO VISIBILITY.

COZ001>005-013-030-031-011100-
...NORTHWEST COLORADO...

CITY           SKY/WX    TMP DP  RH WIND       PRES   REMARKS
CRAIG          CLEAR     46  35  65 CALM      30.27R
HAYDEN         CLEAR     55  34  44 E9        30.28S
MEEKER         CLEAR     52  34  50 SE3       30.30R
MOUNT WERNER   NOT AVBL
STEAMBOAT SPGS CLEAR     48  37  66 NE6       30.32R
WALDEN         CLEAR     43  36  75 SE7       30.40S
$$

COZ006>008-011-011100-
...WEST CENTRAL VALLEYS...

CITY           SKY/WX    TMP DP  RH WIND       PRES   REMARKS
GRAND JUNCTION PTCLDY    70  47  43 E9        30.17R
MONTROSE       PTCLDY    62  46  55 VRB5      30.27S
EAGLE          CLEAR     57  41  54 S5        30.34R
RIFLE          CLEAR     62  39  42 SW3       30.24R
DELTA          PTCLDY    65  46  49 NE6       30.23S
NUCLA          PTCLDY    63  45  51 E8        30.31S
$$

COZ017>023-064>068-011100-
...SOUTHWEST COLORADO...

CITY           SKY/WX    TMP DP  RH WIND       PRES   REMARKS
DURANGO        CLOUDY    60  54  80 CALM      30.35F
CORTEZ         CLOUDY    63  60  90 E3        30.28F
PAGOSA SPRINGS CLOUDY    57  55  91 CALM      30.44S
TELLURIDE      MOCLDY    56  48  74 S3        30.52S
WOLF CREEK PAS NOT AVBL
$$

COZ009-010-012-014-032>034-037-058>063-011100-
...CENTRAL COLORADO...

CITY           SKY/WX    TMP DP  RH WIND       PRES   REMARKS
ASPEN          PTCLDY    56  43  61 SW8       30.39S
BUENA VISTA    PTCLDY    49  46  88 CALM      30.45S
COPPER MTN     PTCLDY    54  37  54 S14       30.72S
BERTHOUD PASS  FAIR      45  36  70 NW8       30.76R
COTTONWOOD PAS PTCLDY    57  41  54 SW7       30.57S
GUNNISON       PTCLDY    52  45  76 CALM      30.47R
KREMMLING      CLEAR     50  41  71 CALM      30.39S
LEADVILLE      PTCLDY    43  41  93 NE6       30.56S
MONARCH PASS   MOCLDY    45  37  76 W17       30.82R
SALIDA         MOCLDY    54  47  79 CALM      30.49F
SUNLIGHT       CLEAR     54  37  54 CALM      30.64S
WILKERSON PASS PTCLDY    46  43  87 W7        30.68S
$$

COZ069>075-011100-
...SAN LUIS VALLEY/SANGRE DE CRISTO MOUNTAINS...

CITY           SKY/WX    TMP DP  RH WIND       PRES   REMARKS
ALAMOSA        CLOUDY    57  53  86 CALM      30.41F
LA VETA PASS   CLOUDY    46  43  87 MISG      30.58S
SAGUACHE       PTCLDY    54  48  82 NW10      30.45S
$$

COZ035-036-038>040-011100-
...NORTHERN COLORADO FRONT RANGE...

CITY           SKY/WX    TMP DP  RH WIND       PRES   REMARKS
DENVER INTL AP PTCLDY    64  52  64 S12       30.20S
DMNS CITY PARK   N/A     65  52  63 E10       30.19S
AURORA         PTCLDY    68  53  58 S15       30.22S
FRONT RANGE AP CLEAR     63  52  67 S9        30.22S
ERIE MUNI ARPT CLEAR     62  51  66 CALM      30.18S
BOULDER MUN AP CLEAR     63  52  67 W5        30.19R
CENTENNIAL     PTCLDY    65  52  62 S12       30.23F
BROOMFIELD     CLEAR     64  50  59 W5        30.22S
FORT COLLINS   CLEAR     61  52  72 N5        30.19S
LONGMONT       CLEAR     61  53  73 CALM      30.20R
$$

COZ041-046-047-076>085-087-088-011100-
...PIKES PEAK/PALMER DIVIDE AND SOUTHERN FOOTHILLS...

CITY           SKY/WX    TMP DP  RH WIND       PRES   REMARKS
COLO. SPRINGS  PTCLDY    59  51  75 N5        30.31F
A. F. ACADEMY  CLEAR     53  49  87 N5        30.32F
ELLICOTT       PTCLDY   N/A N/A N/A SE7       30.29F
FALCON         PTCLDY    58  52  79 CALM      30.36S
FORT CARSON    PTCLDY    58  52  81 N6        30.27F
LIMON          CLEAR     53  53 100 CALM      30.26S
MONUMENT HILL  CLEAR     55  52  88 S9        30.34F
TRINIDAD       CLOUDY    64  54  69 W6        30.27S
$$

COZ042>045-048>051-090-091-011100-
...NORTHEAST COLORADO...

CITY           SKY/WX    TMP DP  RH WIND       PRES   REMARKS
GREELEY ARPT   CLEAR     63  54  72 E7        30.18R
AKRON          CLEAR     65  59  81 S12       30.19F
BURLINGTON     CLEAR     64  59  83 S10       30.20F
WRAY           CLEAR     62  58  87 SW7       30.16R
STERLING       CLEAR     61  55  82 SW5       30.14F
HOLYOKE        NOT AVBL
FORT MORGAN    CLEAR     62  55  79 SE3       30.18S
$$

COZ086-089-092>099-011100-
...SOUTHEAST COLORADO...

CITY           SKY/WX    TMP DP  RH WIND       PRES   REMARKS
PUEBLO         PTCLDY    66  55  67 W3        30.21S
LA JUNTA       CLEAR     65  62  90 E8        30.17F
LAMAR          CLEAR     67  62  84 E3        30.15F
SPRINGFIELD      N/A     63  63 100 S3        30.20F
$$


USA.gov is the U.S. government's official web portal to all federal, state and local government web resources and services.